When you browse on this site, cookies collect data to enhance your experience and personalize the content and advertising you see.
Visit our Privacy Policy to learn more. By continuing to use the site, you agree to this use of cookies and data.
  • în România
  • Lista ţărilor
  • Pe 7 zile
  • Temperatura apei
  • Meteo pe hartă
  • Widget-uri
  • user-avatar
    Intrare

    Meteo pe oră la Connaught

    Astăzi, 27 Februarie, Joi

    Timp Temperatura Precipitaţii Vânt Presiune Umiditate
    00:00 +1°C° 0 mm 2 m/s 734 mmHg 92%
    01:00 -1°C° 0 mm 2 m/s 734 mmHg 92%
    02:00 -1°C° 0 mm 2 m/s 735 mmHg 92%
    03:00 -1°C° 0 mm 2 m/s 735 mmHg 91%
    04:00 -1°C° 0 mm 3 m/s 735 mmHg 89%
    05:00 -2°C° 0 mm 3 m/s 736 mmHg 87%
    06:00 -1°C° 0 mm 3 m/s 736 mmHg 84%
    07:00 0°C° 0 mm 3 m/s 737 mmHg 82%
    08:00 0°C° 0 mm 3 m/s 738 mmHg 79%
    09:00 +1°C° 0 mm 4 m/s 738 mmHg 73%
    10:00 +2°C° 0 mm 5 m/s 739 mmHg 68%
    11:00 +3°C° 0 mm 6 m/s 740 mmHg 62%
    12:00 +5°C° 0 mm 5 m/s 740 mmHg 62%
    13:00 +5°C° 0 mm 5 m/s 740 mmHg 62%
    14:00 +5°C° 0 mm 5 m/s 740 mmHg 61%
    15:00 +4°C° 0 mm 4 m/s 740 mmHg 67%
    16:00 +3°C° 0 mm 4 m/s 740 mmHg 72%
    17:00 +1°C° 0 mm 3 m/s 741 mmHg 78%
    18:00 +1°C° 0 mm 3 m/s 740 mmHg 79%
    19:00 +1°C° 0 mm 3 m/s 740 mmHg 80%
    20:00 0°C° 0 mm 3 m/s 740 mmHg 81%
    21:00 0°C° 0 mm 4 m/s 739 mmHg 80%
    22:00 0°C° 0 mm 4 m/s 739 mmHg 80%
    23:00 0°C° 0 mm 4 m/s 738 mmHg 79%

    Mâine, 28 Februarie, Vineri

    Timp Temperatura Precipitaţii Vânt Presiune Umiditate
    00:00 0°C° 0.2 mm 5 m/s 737 mmHg 85%
    01:00 +1°C° 0.2 mm 5 m/s 736 mmHg 90%
    02:00 +1°C° 0.2 mm 5 m/s 735 mmHg 96%
    03:00 +1°C° 0.9 mm 5 m/s 733 mmHg 96%
    04:00 +1°C° 0.9 mm 5 m/s 732 mmHg 96%
    05:00 +1°C° 0.9 mm 5 m/s 730 mmHg 96%
    06:00 +2°C° 0.8 mm 5 m/s 729 mmHg 96%
    07:00 +2°C° 0.8 mm 5 m/s 728 mmHg 96%
    08:00 +3°C° 0.8 mm 4 m/s 727 mmHg 97%
    09:00 +4°C° 0 mm 4 m/s 727 mmHg 96%
    10:00 +5°C° 0 mm 3 m/s 727 mmHg 94%
    11:00 +7°C° 0 mm 2 m/s 726 mmHg 93%
    12:00 +7°C° 0 mm 2 m/s 725 mmHg 92%
    13:00 +7°C° 0 mm 2 m/s 725 mmHg 92%
    14:00 +8°C° 0 mm 2 m/s 724 mmHg 91%
    15:00 +7°C° 0 mm 2 m/s 723 mmHg 93%
    16:00 +7°C° 0 mm 2 m/s 722 mmHg 95%
    17:00 +6°C° 0 mm 2 m/s 721 mmHg 97%
    18:00 +7°C° 0.2 mm 3 m/s 720 mmHg 97%
    19:00 +6°C° 0.2 mm 4 m/s 718 mmHg 98%
    20:00 +6°C° 0.2 mm 4 m/s 717 mmHg 98%
    21:00 +6°C° 2 mm 5 m/s 715 mmHg 97%
    22:00 +7°C° 2 mm 5 m/s 714 mmHg 96%
    23:00 +7°C° 2 mm 6 m/s 712 mmHg 96%

    Poimâine, 29 Februarie, Sâmbătă

    Timp Temperatura Precipitaţii Vânt Presiune Umiditate
    00:00 +4°C° 0.9 mm 7 m/s 712 mmHg 93%
    01:00 +2°C° 0.9 mm 8 m/s 711 mmHg 90%
    02:00 0°C° 0.9 mm 10 m/s 711 mmHg 87%
    03:00 -1°C° 0.1 mm 9 m/s 711 mmHg 88%
    04:00 -3°C° 0.1 mm 9 m/s 710 mmHg 89%
    05:00 -4°C° 0.1 mm 9 m/s 710 mmHg 90%
    06:00 -4°C° 1.1 mm 10 m/s 708 mmHg 91%
    07:00 -3°C° 1.1 mm 12 m/s 707 mmHg 92%
    08:00 -4°C° 1.1 mm 14 m/s 706 mmHg 93%
    09:00 -2°C° 2.5 mm 12 m/s 705 mmHg 94%
    10:00 0°C° 2.5 mm 10 m/s 704 mmHg 95%
    11:00 +1°C° 2.5 mm 8 m/s 703 mmHg 96%
    12:00 +1°C° 1.6 mm 9 m/s 702 mmHg 95%
    13:00 +2°C° 1.6 mm 9 m/s 702 mmHg 94%
    14:00 +2°C° 1.6 mm 10 m/s 702 mmHg 94%
    15:00 +1°C° 1.1 mm 10 m/s 703 mmHg 93%
    16:00 +1°C° 1.1 mm 9 m/s 704 mmHg 93%
    17:00 +1°C° 1.1 mm 9 m/s 706 mmHg 93%
    18:00 +1°C° 1.5 mm 10 m/s 707 mmHg 93%
    19:00 0°C° 1.5 mm 12 m/s 708 mmHg 92%
    20:00 0°C° 1.5 mm 13 m/s 709 mmHg 92%
    21:00 0°C° 1.3 mm 13 m/s 711 mmHg 91%
    22:00 0°C° 1.3 mm 13 m/s 712 mmHg 90%
    23:00 0°C° 1.3 mm 13 m/s 713 mmHg 89%

    1 Martie, Duminică

    Timp Temperatura Precipitaţii Vânt Presiune Umiditate
    00:00 0°C° 0.2 mm 12 m/s 714 mmHg 86%
    01:00 0°C° 0.2 mm 12 m/s 715 mmHg 83%
    02:00 -1°C° 0.2 mm 12 m/s 716 mmHg 81%
    03:00 -1°C° 0.1 mm 11 m/s 716 mmHg 79%
    04:00 -1°C° 0.1 mm 11 m/s 717 mmHg 77%
    05:00 0°C° 0.1 mm 10 m/s 718 mmHg 76%
    06:00 0°C° 0 mm 10 m/s 718 mmHg 75%
    07:00 0°C° 0 mm 9 m/s 719 mmHg 75%
    08:00 0°C° 0 mm 9 m/s 719 mmHg 75%
    09:00 +1°C° 0 mm 9 m/s 720 mmHg 69%
    10:00 +2°C° 0 mm 10 m/s 721 mmHg 63%
    11:00 +2°C° 0 mm 11 m/s 722 mmHg 57%
    12:00 +2°C° 0 mm 10 m/s 722 mmHg 58%
    13:00 +2°C° 0 mm 10 m/s 723 mmHg 59%
    14:00 +2°C° 0 mm 9 m/s 723 mmHg 60%
    15:00 +2°C° 0.1 mm 7 m/s 723 mmHg 65%
    16:00 +1°C° 0.1 mm 6 m/s 724 mmHg 69%
    17:00 0°C° 0.1 mm 4 m/s 724 mmHg 73%
    18:00 -1°C° 0 mm 4 m/s 725 mmHg 76%
    19:00 0°C° 0 mm 3 m/s 725 mmHg 79%
    20:00 -1°C° 0 mm 3 m/s 725 mmHg 81%
    21:00 -1°C° 0 mm 3 m/s 726 mmHg 81%
    22:00 -1°C° 0 mm 3 m/s 726 mmHg 82%
    23:00 -1°C° 0 mm 3 m/s 727 mmHg 82%

    2 Martie, Luni

    Timp Temperatura Precipitaţii Vânt Presiune Umiditate
    00:00 -1°C° 0 mm 3 m/s 727 mmHg 82%
    01:00 -1°C° 0 mm 3 m/s 727 mmHg 82%
    02:00 -1°C° 0 mm 3 m/s 728 mmHg 82%
    03:00 -1°C° 0 mm 3 m/s 728 mmHg 82%
    04:00 -1°C° 0 mm 3 m/s 729 mmHg 82%
    05:00 -1°C° 0 mm 3 m/s 729 mmHg 82%
    06:00 -1°C° 0 mm 3 m/s 730 mmHg 79%
    07:00 -1°C° 0 mm 4 m/s 731 mmHg 76%
    08:00 0°C° 0 mm 4 m/s 731 mmHg 73%
    09:00 +1°C° 0.2 mm 5 m/s 732 mmHg 70%
    10:00 +2°C° 0.2 mm 5 m/s 733 mmHg 67%
    11:00 +3°C° 0.2 mm 6 m/s 733 mmHg 64%
    12:00 +3°C° 0.2 mm 6 m/s 733 mmHg 64%
    13:00 +3°C° 0.2 mm 6 m/s 734 mmHg 63%
    14:00 +3°C° 0.2 mm 6 m/s 734 mmHg 63%
    15:00 +2°C° 0.1 mm 5 m/s 734 mmHg 68%
    16:00 +1°C° 0.1 mm 4 m/s 735 mmHg 72%
    17:00 +1°C° 0.1 mm 3 m/s 735 mmHg 76%
    18:00 0°C° 0 mm 3 m/s 736 mmHg 79%
    19:00 0°C° 0 mm 3 m/s 736 mmHg 81%
    20:00 -1°C° 0 mm 3 m/s 737 mmHg 83%
    21:00 -1°C° 0 mm 3 m/s 737 mmHg 83%
    22:00 -1°C° 0 mm 3 m/s 737 mmHg 84%
    23:00 -2°C° 0 mm 2 m/s 737 mmHg 84%

    3 Martie, Marţi

    Timp Temperatura Precipitaţii Vânt Presiune Umiditate
    00:00 -2°C° 0 mm 2 m/s 737 mmHg 84%
    01:00 -1°C° 0 mm 2 m/s 737 mmHg 84%
    02:00 -1°C° 0 mm 2 m/s 737 mmHg 84%
    03:00 -1°C° 0 mm 2 m/s 737 mmHg 83%
    04:00 +1°C° 0 mm 1 m/s 736 mmHg 83%
    05:00 +1°C° 0 mm 1 m/s 736 mmHg 83%
    06:00 +1°C° 0 mm 1 m/s 736 mmHg 82%
    07:00 +2°C° 0 mm 1 m/s 736 mmHg 80%
    08:00 +3°C° 0 mm 1 m/s 736 mmHg 79%
    09:00 +3°C° 0 mm 2 m/s 736 mmHg 74%
    10:00 +4°C° 0 mm 2 m/s 736 mmHg 69%
    11:00 +5°C° 0 mm 2 m/s 736 mmHg 65%
    12:00 +5°C° 0 mm 2 m/s 735 mmHg 63%
    13:00 +5°C° 0 mm 2 m/s 735 mmHg 62%
    14:00 +4°C° 0 mm 3 m/s 735 mmHg 61%
    15:00 +4°C° 0 mm 2 m/s 735 mmHg 66%
    16:00 +3°C° 0 mm 2 m/s 735 mmHg 71%
    17:00 +3°C° 0 mm 2 m/s 735 mmHg 76%
    18:00 +3°C° 0 mm 1 m/s 736 mmHg 79%
    19:00 +2°C° 0 mm 1 m/s 736 mmHg 82%
    20:00 +1°C° 0 mm 1 m/s 737 mmHg 86%
    21:00 0°C° 0 mm 1 m/s 737 mmHg 86%
    22:00 0°C° 0 mm 1 m/s 737 mmHg 86%
    23:00 -1°C° 0 mm 0 m/s 738 mmHg 87%
    Arată mai mult